GFSMW_500_temp_000.txt.gz
Temp
-14 -14 -14 -15 -15 -15 -16 -15 -15 -16 -16 -16 -16 -17 -17 -17 -17 -17 -17 -17 -16 -18 -16 -16 -16 -16 -16 -17 -17 -16 -16 -16 -16 -16 -16 -16 -16 -15 -16 -16 -15 -15 -15
-14 -14 -14 -15 -16 -16 -16 -16 -15 -16 -16 -17 -16 -17 -18 -18 -17 -17 -17 -17 -18 -18 -18 -18 -17 -17 -19 -19 -19 -19 -18 -18 -18 -18 -18 -17 -17 -17 -17 -17 -17 -17 -16
-15 -14 -15 -15 -16 -16 -17 -17 -17 -17 -17 -17 -17 -18 -17 -17 -17 -17 -18 -17 -18 -18 -18 -18 -18 -18 -19 -19 -19 -19 -20 -19 -19 -20 -20 -19 -19 -19 -19 -19 -19 -19 -20
-14 -14 -15 -16 -16 -17 -17 -17 -17 -17 -18 -18 -17 -17 -17 -17 -17 -18 -18 -18 -18 -18 -18 -18 -18 -19 -19 -20 -20 -20 -20 -20 -20 -21 -21 -22 -22 -22 -20 -21 -21 -21 -21
-15 -15 -15 -16 -16 -16 -17 -17 -17 -17 -17 -17 -17 -17 -17 -17 -18 -17 -18 -18 -18 -18 -19 -19 -19 -20 -20 -21 -21 -21 -22 -22 -22 -22 -22 -22 -22 -23 -23 -22 -21 -21 -22
-15 -16 -16 -16 -16 -16 -17 -17 -18 -17 -17 -17 -17 -18 -18 -17 -17 -17 -18 -18 -19 -19 -20 -20 -21 -21 -21 -21 -21 -22 -23 -23 -23 -22 -22 -23 -23 -23 -24 -24 -23 -21 -21
-16 -16 -16 -16 -16 -16 -17 -17 -17 -18 -18 -17 -17 -17 -17 -17 -18 -18 -19 -19 -19 -20 -21 -21 -22 -22 -22 -23 -23 -23 -23 -23 -24 -24 -24 -25 -25 -25 -25 -25 -25 -24 -23
-16 -16 -16 -16 -16 -17 -17 -17 -17 -17 -17 -18 -17 -17 -18 -18 -19 -19 -20 -20 -21 -22 -22 -22 -22 -23 -24 -24 -24 -24 -24 -25 -26 -26 -26 -27 -27 -28 -28 -28 -28 -28 -27
-16 -17 -17 -16 -17 -17 -17 -17 -17 -17 -18 -18 -18 -18 -19 -19 -19 -19 -20 -21 -22 -23 -23 -24 -24 -24 -25 -25 -25 -26 -26 -26 -28 -29 -30 -30 -30 -30 -30 -30 -31 -31 -31
-17 -17 -17 -17 -17 -16 -16 -17 -17 -17 -17 -18 -18 -18 -19 -19 -20 -21 -22 -22 -23 -24 -24 -24 -25 -25 -26 -26 -27 -28 -29 -30 -30 -31 -31 -31 -31 -31 -31 -32 -32 -32 -31
-18 -18 -17 -17 -17 -17 -17 -17 -17 -18 -18 -18 -19 -20 -20 -21 -22 -22 -23 -23 -24 -25 -25 -26 -27 -27 -28 -29 -29 -30 -31 -31 -31 -31 -31 -31 -31 -31 -31 -31 -31 -31 -32
-17 -17 -17 -17 -17 -17 -18 -18 -18 -18 -19 -19 -20 -21 -21 -22 -23 -24 -24 -25 -26 -26 -27 -28 -28 -29 -30 -30 -31 -31 -31 -31 -31 -31 -31 -31 -31 -31 -31 -32 -31 -31 -31
-17 -17 -18 -18 -18 -18 -18 -19 -19 -19 -19 -20 -21 -22 -23 -24 -25 -25 -26 -27 -27 -28 -29 -29 -30 -30 -31 -31 -31 -31 -31 -31 -31 -31 -31 -31 -31 -31 -31 -31 -31 -31 -31
-17 -18 -18 -18 -18 -18 -18 -19 -19 -20 -21 -22 -21 -23 -23 -24 -25 -27 -27 -28 -29 -29 -30 -30 -31 -31 -31 -31 -31 -31 -31 -31 -31 -32 -32 -32 -32 -31 -31 -31 -31 -31 -31
-18 -18 -18 -18 -18 -18 -19 -20 -21 -22 -22 -23 -23 -23 -23 -24 -26 -28 -28 -29 -30 -30 -30 -31 -32 -32 -31 -31 -31 -32 -32 -32 -32 -33 -33 -34 -33 -33 -32 -32 -31 -31 -31
-18 -18 -18 -18 -19 -19 -20 -21 -21 -22 -22 -23 -23 -24 -25 -26 -27 -29 -30 -30 -30 -31 -32 -32 -32 -32 -32 -32 -32 -33 -33 -34 -34 -34 -34 -35 -35 -35 -34 -33 -32 -31 -31
-18 -18 -18 -19 -19 -20 -20 -21 -22 -23 -23 -23 -24 -26 -28 -30 -31 -31 -31 -31 -32 -32 -32 -32 -32 -32 -32 -32 -33 -34 -34 -34 -34 -34 -34 -34 -35 -35 -35 -35 -34 -33 -31
-18 -18 -19 -19 -19 -20 -21 -21 -22 -23 -23 -25 -27 -28 -29 -29 -31 -32 -33 -32 -33 -33 -32 -32 -32 -32 -33 -33 -33 -34 -34 -34 -34 -35 -35 -35 -35 -35 -35 -35 -34 -33 -32
-19 -19 -19 -20 -20 -21 -21 -22 -23 -23 -24 -25 -28 -29 -30 -32 -32 -33 -33 -33 -33 -33 -33 -33 -33 -33 -33 -34 -34 -34 -34 -34 -35 -35 -36 -36 -36 -36 -35 -35 -35 -34 -32
-20 -19 -20 -20 -21 -22 -22 -23 -24 -24 -26 -27 -29 -30 -31 -33 -33 -33 -33 -33 -33 -33 -33 -33 -33 -33 -34 -34 -34 -34 -35 -35 -35 -36 -36 -36 -36 -36 -36 -35 -34 -34 -32
-19 -20 -20 -21 -22 -22 -23 -24 -24 -26 -28 -29 -30 -31 -33 -34 -34 -33 -33 -33 -33 -33 -33 -33 -33 -34 -34 -34 -34 -34 -35 -35 -35 -36 -36 -36 -36 -36 -35 -35 -34 -33 -31
-20 -21 -21 -22 -23 -23 -24 -24 -26 -28 -30 -30 -31 -31 -33 -33 -34 -33 -33 -33 -33 -33 -33 -33 -33 -34 -34 -34 -34 -34 -34 -34 -35 -35 -35 -35 -36 -36 -35 -34 -33 -32 -31
-21 -21 -22 -23 -23 -24 -25 -27 -29 -29 -30 -31 -32 -32 -33 -33 -33 -33 -33 -33 -33 -33 -33 -33 -34 -34 -34 -34 -34 -34 -34 -34 -34 -34 -34 -35 -35 -34 -34 -34 -33 -31 -31
-22 -22 -23 -23 -24 -26 -27 -29 -30 -30 -31 -31 -32 -33 -33 -33 -33 -33 -33 -33 -33 -33 -33 -33 -34 -34 -34 -34 -34 -34 -34 -34 -34 -34 -34 -34 -33 -33 -33 -32 -32 -31 -30
-22 -23 -23 -24 -25 -27 -29 -30 -30 -31 -31 -32 -33 -33 -33 -32 -32 -33 -33 -33 -34 -33 -34 -33 -34 -34 -34 -34 -33 -33 -34 -33 -33 -34 -34 -33 -33 -33 -32 -32 -31 -31 -30
-23 -24 -24 -26 -27 -29 -30 -31 -31 -32 -32 -33 -33 -33 -32 -32 -32 -33 -33 -33 -34 -34 -34 -34 -34 -34 -34 -34 -33 -33 -33 -33 -33 -33 -33 -33 -33 -32 -32 -32 -31 -31 -30

GFSMW_500_temp_003.txt.gz
Temp
-14 -14 -14 -14 -15 -15 -15 -15 -15 -15 -16 -16 -17 -16 -17 -17 -17 -17 -17 -17 -17 -17 -17 -17 -17 -16 -17 -17 -17 -17 -17 -17 -17 -17 -17 -16 -16 -16 -16 -16 -16 -16 -15
-14 -15 -15 -15 -15 -16 -16 -16 -16 -17 -16 -16 -17 -17 -18 -17 -17 -17 -17 -17 -17 -16 -16 -16 -16 -17 -17 -17 -17 -17 -17 -18 -18 -18 -18 -17 -18 -18 -18 -18 -18 -18 -17
-15 -15 -16 -16 -16 -16 -16 -17 -17 -17 -16 -17 -17 -18 -18 -17 -17 -17 -17 -17 -17 -17 -17 -17 -18 -17 -17 -18 -18 -18 -19 -19 -19 -20 -20 -19 -19 -19 -19 -20 -20 -20 -20
-15 -15 -16 -16 -16 -16 -16 -16 -17 -17 -17 -17 -18 -18 -17 -17 -17 -17 -17 -17 -18 -18 -18 -18 -19 -19 -19 -19 -19 -19 -20 -20 -20 -21 -21 -22 -22 -21 -20 -21 -21 -22 -22
-15 -15 -16 -16 -16 -16 -16 -16 -17 -17 -17 -17 -17 -17 -17 -17 -17 -18 -18 -18 -18 -18 -18 -19 -19 -19 -19 -20 -21 -21 -21 -22 -22 -22 -22 -22 -23 -23 -23 -22 -21 -22 -22
-15 -16 -16 -16 -16 -16 -16 -16 -17 -17 -17 -17 -17 -17 -18 -17 -17 -18 -18 -18 -18 -19 -19 -19 -20 -20 -21 -21 -22 -22 -23 -23 -23 -24 -24 -23 -23 -23 -24 -24 -23 -22 -22
-16 -16 -16 -16 -16 -16 -16 -17 -17 -17 -17 -16 -17 -17 -17 -17 -17 -18 -18 -18 -19 -19 -20 -20 -21 -21 -22 -23 -23 -24 -24 -24 -24 -24 -24 -24 -25 -25 -25 -25 -25 -25 -25
-17 -17 -17 -17 -16 -17 -18 -18 -18 -18 -18 -18 -18 -18 -17 -17 -18 -18 -19 -20 -20 -21 -22 -22 -23 -23 -23 -24 -24 -25 -25 -25 -25 -26 -26 -27 -28 -29 -29 -30 -30 -29 -29
-17 -17 -17 -16 -16 -16 -16 -17 -16 -16 -17 -17 -17 -18 -18 -18 -19 -20 -21 -22 -22 -23 -23 -23 -24 -24 -25 -26 -26 -26 -27 -28 -28 -29 -30 -30 -30 -31 -31 -31 -31 -31 -31
-18 -18 -17 -17 -17 -17 -17 -17 -17 -17 -17 -18 -18 -18 -19 -20 -20 -21 -22 -23 -23 -23 -23 -24 -25 -26 -27 -28 -29 -29 -30 -30 -31 -31 -31 -31 -31 -31 -31 -31 -31 -31 -31
-17 -17 -17 -17 -17 -18 -18 -17 -17 -18 -18 -18 -19 -20 -20 -21 -21 -22 -23 -23 -24 -25 -26 -27 -28 -29 -29 -30 -30 -31 -31 -31 -32 -31 -31 -31 -31 -31 -31 -31 -31 -31 -31
-18 -17 -18 -18 -18 -18 -17 -18 -18 -18 -19 -19 -20 -20 -21 -22 -22 -23 -23 -24 -26 -27 -28 -30 -30 -30 -31 -31 -31 -32 -32 -32 -32 -31 -32 -31 -31 -31 -31 -31 -32 -32 -31
-17 -18 -18 -18 -18 -17 -18 -18 -18 -19 -19 -20 -20 -20 -22 -23 -23 -23 -23 -24 -27 -28 -30 -31 -31 -31 -31 -32 -32 -32 -32 -32 -32 -31 -31 -32 -32 -32 -33 -32 -32 -32 -31
-18 -18 -18 -17 -17 -17 -18 -18 -19 -20 -20 -20 -20 -21 -22 -23 -23 -24 -26 -28 -30 -30 -31 -32 -32 -33 -32 -32 -32 -32 -32 -32 -32 -32 -33 -33 -33 -34 -34 -34 -33 -33 -32
-18 -18 -18 -17 -18 -18 -18 -19 -20 -20 -21 -21 -22 -22 -23 -23 -25 -27 -29 -31 -31 -31 -32 -32 -33 -33 -32 -32 -32 -32 -32 -33 -33 -33 -34 -34 -34 -34 -34 -34 -34 -34 -33
-18 -18 -18 -18 -18 -18 -19 -19 -19 -20 -21 -22 -23 -23 -24 -25 -27 -29 -31 -31 -31 -32 -32 -33 -33 -32 -32 -32 -32 -33 -33 -33 -33 -33 -34 -34 -34 -34 -34 -34 -34 -35 -35
-18 -18 -18 -18 -18 -18 -19 -19 -20 -20 -21 -22 -23 -24 -25 -26 -29 -30 -32 -32 -32 -32 -32 -33 -33 -32 -32 -32 -33 -33 -33 -33 -34 -34 -35 -35 -35 -35 -35 -35 -35 -35 -35
-18 -18 -18 -18 -18 -19 -20 -20 -21 -22 -22 -23 -24 -25 -26 -28 -29 -31 -32 -33 -33 -33 -33 -33 -33 -33 -33 -33 -33 -34 -34 -34 -35 -35 -35 -36 -36 -36 -36 -36 -36 -36 -35
-18 -18 -19 -19 -20 -20 -20 -21 -22 -22 -23 -24 -25 -27 -29 -29 -30 -31 -33 -34 -34 -33 -33 -33 -33 -33 -33 -34 -34 -34 -34 -34 -34 -35 -35 -36 -36 -37 -37 -37 -37 -36 -36
-19 -19 -20 -20 -20 -20 -21 -22 -22 -23 -24 -25 -27 -29 -30 -31 -31 -33 -34 -34 -33 -33 -33 -33 -33 -33 -33 -34 -34 -34 -34 -34 -34 -34 -35 -35 -36 -36 -36 -36 -36 -36 -35
-19 -19 -19 -20 -20 -21 -22 -22 -23 -24 -25 -26 -29 -30 -31 -32 -32 -33 -33 -33 -33 -33 -33 -33 -33 -33 -33 -33 -34 -34 -33 -34 -34 -34 -34 -35 -35 -36 -36 -36 -35 -35 -35
-19 -20 -20 -21 -22 -22 -23 -23 -24 -25 -27 -29 -30 -31 -32 -32 -33 -33 -33 -33 -33 -33 -33 -33 -33 -33 -34 -34 -34 -33 -33 -34 -34 -34 -34 -35 -35 -35 -35 -36 -35 -34 -33
-20 -20 -21 -22 -22 -23 -23 -24 -25 -27 -29 -30 -31 -32 -32 -33 -33 -33 -32 -33 -33 -33 -33 -33 -33 -33 -34 -34 -34 -33 -33 -34 -33 -34 -34 -34 -34 -34 -34 -34 -34 -33 -32
-21 -22 -22 -22 -23 -23 -24 -25 -26 -29 -30 -31 -32 -32 -33 -33 -33 -32 -32 -33 -33 -33 -34 -33 -33 -33 -33 -34 -34 -34 -34 -33 -33 -33 -33 -34 -33 -33 -33 -33 -33 -32 -31
-22 -23 -23 -23 -24 -24 -25 -26 -28 -30 -31 -32 -32 -33 -33 -33 -32 -32 -32 -33 -33 -33 -34 -33 -33 -33 -33 -34 -34 -33 -33 -33 -33 -33 -33 -33 -33 -33 -33 -32 -32 -31 -31
-23 -23 -23 -24 -24 -25 -26 -27 -29 -30 -31 -32 -33 -33 -33 -33 -32 -32 -32 -33 -33 -33 -34 -33 -33 -33 -33 -34 -34 -34 -33 -33 -33 -33 -33 -33 -33 -33 -33 -32 -32 -32 -32

GFSMW_500_temp_006.txt.gz
Temp
-15 -15 -15 -15 -16 -16 -16 -16 -16 -17 -16 -16 -16 -16 -16 -16 -17 -17 -18 -17 -17 -17 -17 -17 -18 -17 -17 -17 -16 -16 -16 -16 -16 -16 -16 -16 -16 -17 -17 -17 -16 -16 -16
-15 -15 -16 -16 -17 -16 -16 -16 -16 -16 -15 -16 -16 -16 -17 -17 -17 -18 -18 -18 -17 -17 -18 -17 -17 -17 -18 -18 -17 -17 -17 -18 -18 -18 -18 -17 -17 -18 -18 -18 -18 -18 -18
-15 -17 -16 -17 -16 -16 -16 -16 -16 -16 -16 -17 -17 -17 -17 -17 -17 -18 -18 -17 -18 -18 -18 -18 -18 -18 -18 -18 -18 -18 -18 -19 -19 -19 -19 -19 -19 -18 -19 -20 -20 -20 -20
-16 -16 -16 -17 -16 -16 -16 -16 -16 -17 -17 -17 -17 -17 -17 -18 -18 -18 -18 -18 -18 -18 -18 -19 -19 -18 -18 -19 -19 -19 -20 -20 -20 -20 -20 -20 -21 -20 -20 -20 -21 -21 -21
-16 -16 -17 -17 -17 -17 -17 -17 -17 -17 -17 -17 -17 -18 -18 -18 -18 -18 -18 -18 -19 -18 -18 -18 -19 -19 -19 -20 -21 -21 -21 -21 -22 -22 -22 -22 -22 -22 -22 -21 -21 -21 -21
-16 -16 -17 -17 -17 -17 -17 -18 -17 -17 -17 -18 -17 -17 -17 -17 -18 -18 -18 -18 -18 -19 -19 -19 -20 -20 -21 -22 -22 -23 -23 -23 -23 -23 -24 -24 -24 -23 -23 -23 -22 -22 -22
-16 -17 -16 -17 -17 -17 -17 -18 -18 -18 -18 -17 -17 -17 -17 -17 -18 -18 -18 -18 -18 -19 -20 -21 -21 -22 -23 -23 -23 -24 -24 -25 -25 -25 -25 -26 -26 -26 -26 -25 -25 -24 -24
-16 -16 -17 -17 -17 -17 -17 -17 -17 -17 -17 -17 -17 -17 -17 -17 -17 -18 -19 -19 -20 -20 -21 -22 -22 -23 -23 -24 -24 -25 -25 -26 -27 -28 -28 -28 -29 -29 -29 -29 -30 -29 -28
-16 -17 -17 -17 -17 -17 -17 -17 -17 -17 -17 -17 -17 -17 -18 -18 -19 -19 -19 -20 -21 -22 -23 -23 -23 -23 -24 -25 -26 -28 -29 -29 -30 -30 -31 -31 -31 -31 -31 -31 -31 -32 -31
-17 -18 -17 -17 -17 -17 -17 -17 -17 -17 -17 -17 -18 -18 -19 -19 -19 -20 -20 -21 -22 -23 -23 -24 -24 -26 -28 -30 -30 -30 -31 -31 -31 -31 -31 -32 -32 -32 -32 -32 -32 -32 -32
-18 -17 -17 -17 -17 -18 -18 -18 -18 -18 -18 -19 -18 -19 -19 -20 -20 -20 -21 -22 -23 -24 -25 -26 -27 -30 -31 -31 -31 -32 -32 -32 -32 -33 -32 -32 -32 -32 -32 -32 -31 -31 -32
-18 -18 -18 -18 -18 -18 -18 -18 -18 -18 -18 -18 -19 -19 -19 -20 -21 -21 -22 -23 -24 -25 -27 -29 -30 -31 -31 -31 -32 -32 -33 -33 -32 -32 -32 -32 -32 -32 -32 -32 -32 -32 -32
-19 -18 -18 -18 -18 -18 -18 -18 -18 -19 -19 -19 -19 -19 -20 -21 -21 -22 -23 -24 -25 -26 -30 -30 -32 -32 -31 -32 -32 -32 -33 -32 -32 -32 -32 -32 -32 -32 -33 -33 -33 -33 -32
-18 -18 -19 -18 -18 -18 -18 -19 -19 -19 -19 -19 -20 -20 -21 -22 -22 -23 -24 -25 -27 -29 -30 -31 -32 -31 -32 -32 -33 -33 -32 -32 -33 -33 -33 -33 -33 -33 -33 -33 -33 -34 -34
-18 -19 -18 -18 -18 -18 -19 -19 -19 -19 -19 -19 -20 -21 -21 -22 -23 -24 -25 -27 -29 -30 -32 -32 -32 -33 -33 -33 -33 -33 -33 -33 -33 -33 -33 -33 -34 -34 -35 -34 -34 -34 -34
-19 -19 -19 -19 -19 -19 -19 -19 -19 -19 -19 -20 -21 -22 -22 -23 -24 -25 -27 -29 -30 -31 -33 -33 -33 -34 -33 -33 -33 -33 -33 -33 -33 -34 -34 -34 -35 -35 -35 -36 -36 -35 -35
-19 -19 -19 -19 -19 -19 -19 -19 -19 -20 -20 -21 -22 -23 -23 -24 -25 -28 -29 -31 -31 -32 -34 -34 -34 -33 -33 -33 -33 -33 -33 -33 -34 -34 -34 -34 -34 -35 -35 -36 -36 -36 -36
-19 -19 -20 -19 -19 -19 -19 -19 -20 -20 -21 -22 -23 -23 -24 -25 -28 -30 -31 -31 -32 -33 -34 -33 -33 -33 -33 -33 -33 -33 -33 -34 -34 -34 -34 -34 -34 -35 -36 -36 -37 -37 -37
-19 -20 -20 -19 -19 -19 -19 -20 -20 -21 -22 -23 -23 -24 -25 -27 -30 -31 -32 -32 -33 -33 -33 -33 -33 -33 -33 -33 -33 -33 -33 -34 -34 -34 -34 -34 -35 -35 -36 -36 -36 -37 -37
-20 -19 -19 -19 -19 -19 -20 -20 -21 -22 -23 -23 -24 -25 -28 -29 -31 -32 -33 -33 -33 -33 -33 -33 -33 -33 -33 -33 -33 -33 -33 -34 -34 -34 -34 -34 -35 -35 -36 -36 -36 -36 -37
-20 -19 -20 -20 -20 -20 -20 -21 -23 -23 -23 -24 -25 -27 -29 -31 -32 -32 -33 -33 -33 -32 -33 -33 -33 -33 -33 -33 -33 -33 -33 -33 -33 -33 -34 -34 -34 -35 -35 -36 -36 -36 -35
-20 -20 -20 -20 -20 -21 -22 -23 -23 -23 -25 -26 -26 -29 -30 -31 -32 -33 -33 -33 -32 -32 -33 -33 -33 -33 -33 -33 -33 -33 -33 -33 -33 -33 -33 -34 -34 -34 -34 -35 -35 -35 -35
-20 -20 -20 -20 -21 -22 -23 -23 -24 -25 -25 -27 -28 -29 -31 -31 -32 -33 -33 -33 -32 -32 -33 -33 -33 -33 -33 -33 -33 -33 -33 -33 -33 -33 -33 -33 -34 -34 -34 -34 -34 -34 -33
-20 -20 -21 -21 -22 -23 -24 -24 -25 -25 -27 -28 -29 -30 -31 -32 -33 -33 -33 -33 -32 -32 -33 -33 -33 -33 -33 -33 -33 -33 -34 -33 -33 -33 -33 -33 -33 -33 -33 -33 -33 -33 -32
-21 -21 -22 -23 -23 -24 -24 -25 -25 -26 -28 -29 -30 -31 -31 -32 -33 -33 -33 -33 -33 -33 -33 -33 -33 -33 -33 -33 -33 -33 -33 -33 -34 -33 -33 -33 -33 -33 -33 -33 -33 -32 -32
-21 -22 -23 -24 -24 -24 -25 -25 -26 -28 -29 -30 -31 -31 -32 -33 -33 -33 -33 -33 -33 -33 -33 -33 -33 -33 -33 -33 -33 -34 -33 -34 -33 -33 -33 -33 -33 -33 -33 -33 -32 -32 -32

GFSMW_500_temp_009.txt.gz
Temp
-15 -15 -15 -15 -15 -15 -15 -15 -15 -15 -16 -16 -16 -16 -17 -17 -17 -17 -17 -17 -17 -17 -17 -17 -17 -17 -17 -17 -17 -17 -17 -18 -18 -18 -17 -17 -18 -18 -18 -18 -18 -17 -17
-15 -16 -16 -17 -17 -16 -15 -16 -16 -15 -16 -16 -17 -17 -17 -17 -17 -17 -18 -17 -17 -17 -17 -18 -17 -18 -18 -18 -18 -18 -19 -19 -19 -19 -19 -18 -18 -19 -19 -19 -19 -19 -19
-15 -16 -16 -16 -16 -17 -17 -17 -17 -17 -17 -17 -17 -17 -17 -18 -18 -18 -17 -17 -17 -18 -18 -18 -18 -18 -19 -19 -19 -19 -19 -20 -20 -20 -20 -20 -20 -20 -20 -21 -21 -20 -20
-16 -15 -16 -16 -16 -17 -17 -17 -17 -17 -17 -17 -17 -18 -18 -18 -18 -18 -18 -18 -18 -18 -19 -19 -19 -19 -19 -19 -19 -20 -20 -20 -21 -21 -22 -22 -22 -21 -20 -21 -21 -21 -21
-16 -16 -16 -17 -17 -17 -17 -17 -17 -17 -17 -18 -18 -18 -18 -18 -18 -18 -18 -19 -19 -19 -19 -19 -19 -19 -19 -20 -20 -21 -22 -22 -23 -23 -23 -23 -24 -24 -23 -23 -22 -22 -22
-16 -16 -16 -16 -17 -17 -17 -17 -18 -18 -18 -18 -18 -18 -18 -18 -18 -18 -18 -18 -18 -19 -19 -19 -19 -20 -20 -21 -22 -22 -23 -23 -24 -24 -25 -25 -26 -26 -26 -26 -25 -25 -24
-16 -17 -16 -17 -18 -17 -18 -18 -18 -18 -18 -18 -19 -18 -18 -18 -17 -18 -18 -18 -18 -18 -19 -20 -20 -21 -22 -22 -23 -23 -23 -24 -25 -26 -27 -28 -28 -29 -29 -29 -28 -28 -28
-16 -17 -17 -17 -18 -18 -18 -17 -17 -17 -17 -17 -17 -17 -17 -17 -17 -18 -18 -18 -19 -19 -20 -21 -22 -22 -23 -22 -23 -24 -24 -26 -29 -29 -30 -30 -31 -31 -31 -31 -31 -30 -30
-17 -17 -17 -17 -17 -17 -18 -18 -18 -18 -18 -17 -17 -17 -17 -18 -18 -18 -19 -20 -20 -20 -21 -21 -22 -23 -24 -24 -25 -27 -29 -30 -30 -31 -31 -31 -32 -32 -32 -32 -32 -32 -31
-17 -17 -17 -17 -17 -17 -18 -18 -18 -18 -18 -18 -18 -18 -18 -18 -18 -19 -19 -20 -20 -20 -21 -22 -23 -24 -25 -27 -30 -30 -31 -31 -32 -32 -31 -31 -32 -32 -32 -32 -32 -32 -32
-16 -16 -17 -17 -18 -18 -18 -18 -18 -18 -18 -18 -18 -18 -18 -18 -19 -19 -19 -20 -21 -22 -23 -23 -24 -26 -28 -30 -31 -32 -32 -32 -32 -32 -32 -32 -32 -32 -32 -32 -32 -32 -32
-16 -16 -17 -18 -19 -19 -19 -19 -19 -19 -19 -19 -18 -18 -19 -19 -19 -20 -20 -21 -22 -23 -24 -24 -27 -29 -30 -31 -32 -33 -32 -33 -32 -33 -32 -32 -32 -32 -32 -32 -32 -33 -33
-17 -17 -17 -18 -19 -19 -19 -19 -19 -19 -19 -19 -19 -19 -19 -19 -20 -20 -21 -22 -23 -24 -24 -27 -29 -30 -31 -33 -33 -33 -33 -32 -33 -32 -32 -33 -32 -33 -33 -33 -33 -34 -34
-17 -17 -18 -18 -18 -19 -19 -19 -19 -19 -19 -19 -19 -19 -19 -20 -20 -21 -22 -23 -24 -24 -26 -29 -31 -31 -32 -34 -33 -33 -33 -33 -33 -33 -32 -32 -33 -33 -34 -34 -34 -34 -34
-17 -18 -18 -18 -19 -20 -20 -20 -20 -19 -19 -19 -19 -20 -20 -20 -21 -23 -23 -24 -25 -27 -29 -30 -31 -32 -33 -33 -33 -33 -33 -33 -33 -32 -32 -33 -33 -34 -34 -34 -34 -34 -35
-18 -18 -19 -19 -20 -20 -20 -20 -20 -20 -20 -20 -20 -20 -21 -22 -23 -23 -24 -25 -27 -29 -31 -31 -32 -32 -33 -33 -33 -33 -33 -33 -33 -33 -33 -33 -34 -34 -34 -34 -34 -35 -35
-18 -18 -19 -19 -20 -20 -20 -20 -20 -20 -20 -20 -20 -21 -22 -23 -23 -24 -25 -27 -29 -31 -32 -32 -32 -33 -33 -33 -33 -33 -33 -33 -33 -33 -33 -33 -34 -34 -34 -35 -35 -36 -36
-19 -19 -19 -19 -20 -20 -20 -20 -20 -20 -20 -20 -21 -22 -23 -23 -24 -26 -27 -29 -31 -32 -32 -33 -33 -32 -33 -33 -33 -33 -33 -33 -33 -33 -33 -34 -34 -34 -34 -35 -35 -36 -36
-19 -19 -19 -20 -20 -20 -20 -20 -20 -20 -21 -21 -23 -23 -23 -24 -26 -27 -29 -30 -31 -32 -33 -33 -32 -32 -33 -33 -33 -33 -33 -33 -33 -33 -33 -34 -34 -34 -34 -35 -35 -36 -37
-19 -19 -20 -20 -20 -20 -20 -20 -20 -21 -21 -23 -23 -24 -24 -26 -27 -28 -30 -31 -32 -32 -33 -32 -32 -32 -33 -33 -33 -33 -33 -33 -33 -34 -34 -34 -34 -34 -34 -34 -35 -36 -36
-19 -20 -20 -20 -20 -20 -20 -21 -21 -22 -23 -23 -24 -25 -26 -27 -28 -30 -31 -31 -32 -33 -33 -32 -32 -32 -33 -33 -33 -33 -33 -33 -33 -33 -33 -33 -33 -34 -34 -34 -35 -35 -35
-20 -20 -21 -21 -21 -21 -21 -21 -22 -23 -23 -24 -25 -26 -27 -28 -29 -30 -31 -32 -33 -33 -33 -33 -32 -33 -33 -33 -33 -33 -33 -33 -33 -33 -33 -33 -33 -33 -34 -34 -34 -34 -34
-20 -21 -21 -21 -21 -21 -22 -22 -23 -24 -24 -25 -26 -27 -28 -29 -30 -31 -32 -32 -33 -33 -33 -33 -33 -33 -33 -33 -33 -33 -33 -33 -33 -33 -33 -33 -33 -33 -33 -34 -34 -33 -33
-20 -21 -21 -21 -22 -22 -23 -23 -24 -24 -25 -26 -28 -28 -29 -30 -31 -31 -32 -33 -33 -33 -33 -33 -33 -33 -33 -33 -33 -33 -33 -33 -33 -33 -33 -33 -33 -33 -33 -33 -33 -33 -33
-21 -21 -22 -22 -22 -23 -24 -24 -24 -25 -26 -28 -29 -30 -30 -31 -32 -32 -33 -33 -34 -34 -33 -33 -33 -33 -33 -33 -33 -33 -33 -33 -33 -33 -34 -34 -33 -33 -33 -33 -33 -33 -33
-21 -22 -23 -23 -23 -24 -24 -24 -25 -26 -28 -28 -29 -30 -31 -31 -32 -33 -33 -34 -34 -34 -34 -34 -34 -34 -34 -34 -33 -33 -33 -33 -33 -33 -34 -34 -33 -33 -33 -33 -33 -33 -33

GFSMW_500_temp_012.txt.gz
Temp
-15 -15 -14 -14 -14 -15 -15 -15 -15 -16 -16 -16 -16 -16 -16 -17 -17 -17 -17 -17 -17 -17 -17 -17 -17 -17 -17 -17 -18 -18 -18 -18 -18 -18 -18 -18 -19 -19 -19 -19 -18 -18 -18
-15 -15 -15 -15 -15 -15 -15 -15 -16 -16 -16 -16 -16 -16 -17 -17 -17 -18 -18 -17 -17 -17 -17 -17 -17 -17 -18 -18 -18 -18 -19 -19 -19 -19 -19 -19 -19 -20 -20 -20 -20 -20 -20
-15 -16 -16 -16 -16 -16 -16 -16 -16 -16 -17 -17 -17 -18 -18 -18 -18 -18 -17 -17 -17 -17 -18 -18 -19 -19 -19 -19 -19 -19 -19 -19 -19 -20 -20 -20 -20 -20 -20 -21 -21 -21 -21
-16 -16 -16 -16 -16 -17 -16 -17 -17 -17 -17 -17 -18 -18 -18 -18 -18 -18 -18 -18 -18 -19 -20 -20 -19 -19 -19 -19 -19 -19 -19 -19 -20 -20 -21 -21 -22 -22 -22 -22 -23 -23 -23
-16 -16 -16 -16 -16 -17 -17 -17 -16 -17 -17 -18 -18 -18 -18 -18 -19 -19 -20 -20 -19 -18 -18 -18 -18 -18 -18 -19 -19 -19 -20 -20 -21 -22 -23 -23 -24 -24 -25 -25 -25 -25 -25
-16 -16 -17 -16 -16 -16 -16 -17 -18 -18 -18 -18 -18 -19 -19 -19 -19 -19 -18 -18 -18 -18 -18 -18 -18 -18 -19 -19 -20 -21 -22 -22 -23 -24 -24 -25 -26 -27 -28 -28 -28 -28 -29
-16 -16 -17 -16 -16 -17 -17 -18 -18 -18 -18 -18 -18 -18 -18 -18 -18 -18 -17 -18 -18 -18 -18 -18 -19 -19 -20 -20 -22 -23 -23 -23 -24 -26 -27 -28 -29 -30 -30 -31 -31 -31 -31
-16 -16 -17 -17 -16 -17 -17 -17 -18 -18 -18 -17 -18 -18 -18 -18 -18 -18 -18 -18 -18 -18 -19 -19 -20 -20 -21 -22 -23 -24 -24 -27 -27 -29 -30 -31 -31 -32 -31 -32 -32 -32 -32
-16 -16 -16 -17 -17 -17 -17 -17 -18 -18 -18 -18 -18 -18 -18 -18 -18 -18 -18 -18 -19 -19 -19 -20 -20 -21 -22 -23 -24 -25 -26 -27 -30 -31 -32 -32 -32 -33 -32 -32 -33 -32 -31
-15 -15 -16 -16 -16 -17 -17 -18 -18 -18 -18 -18 -19 -19 -18 -18 -18 -18 -19 -19 -19 -20 -20 -20 -21 -22 -24 -24 -25 -27 -29 -31 -32 -32 -33 -33 -33 -33 -33 -32 -32 -32 -32
-15 -16 -16 -16 -16 -17 -17 -18 -18 -19 -19 -19 -19 -19 -19 -19 -19 -19 -19 -20 -20 -20 -21 -22 -23 -24 -25 -26 -28 -30 -31 -32 -32 -33 -33 -33 -33 -32 -32 -32 -32 -32 -32
-15 -16 -16 -16 -17 -17 -18 -18 -18 -19 -19 -19 -19 -19 -19 -19 -19 -19 -20 -20 -20 -21 -22 -23 -24 -26 -26 -28 -30 -31 -32 -33 -33 -33 -33 -33 -33 -32 -32 -32 -33 -33 -33
-15 -16 -16 -17 -17 -18 -18 -19 -19 -20 -20 -20 -19 -19 -19 -19 -20 -20 -20 -21 -21 -22 -23 -24 -26 -27 -28 -30 -31 -32 -32 -33 -33 -33 -33 -33 -32 -32 -32 -33 -33 -34 -34
-16 -16 -17 -17 -18 -18 -18 -19 -19 -20 -20 -20 -20 -20 -20 -20 -20 -21 -21 -22 -22 -23 -24 -26 -27 -29 -30 -31 -32 -32 -33 -33 -33 -33 -33 -33 -32 -32 -33 -33 -34 -34 -34
-16 -16 -17 -18 -18 -18 -19 -19 -20 -20 -20 -20 -20 -20 -20 -20 -21 -21 -22 -22 -23 -24 -26 -27 -29 -30 -31 -32 -32 -32 -33 -33 -33 -33 -33 -33 -32 -33 -33 -33 -34 -34 -34
-16 -17 -17 -18 -19 -19 -19 -20 -20 -20 -20 -20 -21 -20 -20 -21 -21 -22 -22 -23 -24 -26 -27 -28 -30 -31 -32 -32 -32 -33 -33 -33 -33 -33 -33 -33 -33 -33 -33 -34 -34 -34 -35
-17 -17 -17 -18 -19 -20 -20 -20 -21 -21 -21 -21 -20 -20 -21 -21 -22 -22 -23 -24 -26 -27 -29 -30 -31 -32 -32 -33 -33 -32 -33 -33 -33 -33 -33 -33 -33 -33 -34 -34 -34 -34 -35
-17 -18 -18 -19 -20 -20 -20 -21 -21 -21 -21 -21 -21 -21 -21 -22 -23 -24 -25 -26 -27 -29 -30 -31 -32 -33 -33 -32 -32 -33 -33 -33 -33 -33 -33 -33 -33 -33 -34 -34 -34 -35 -35
-18 -19 -19 -20 -20 -20 -21 -21 -21 -21 -21 -21 -21 -22 -22 -23 -24 -25 -27 -28 -29 -30 -31 -32 -33 -33 -33 -32 -32 -33 -33 -33 -33 -33 -33 -33 -33 -33 -34 -34 -34 -35 -35
-19 -20 -20 -20 -20 -20 -21 -21 -21 -21 -22 -22 -22 -23 -23 -24 -25 -27 -28 -29 -30 -31 -32 -32 -33 -33 -33 -33 -33 -33 -33 -33 -33 -33 -33 -33 -33 -33 -34 -34 -34 -34 -35
-19 -20 -20 -20 -20 -21 -21 -21 -22 -22 -22 -23 -23 -24 -24 -25 -27 -28 -29 -30 -31 -31 -32 -33 -33 -33 -33 -33 -33 -33 -33 -33 -33 -33 -33 -33 -33 -33 -33 -34 -34 -34 -34
-20 -20 -20 -21 -21 -21 -21 -22 -22 -23 -23 -23 -24 -24 -25 -27 -28 -29 -30 -31 -31 -32 -33 -33 -33 -33 -33 -33 -33 -33 -33 -33 -33 -33 -33 -33 -33 -33 -33 -33 -33 -34 -34
-20 -21 -21 -21 -21 -22 -22 -23 -23 -23 -24 -24 -24 -25 -26 -28 -29 -30 -31 -31 -32 -33 -33 -33 -33 -33 -33 -33 -33 -33 -34 -33 -33 -33 -33 -33 -33 -33 -33 -33 -33 -33 -33
-21 -21 -22 -21 -22 -23 -23 -23 -23 -24 -24 -24 -25 -26 -27 -29 -30 -31 -31 -32 -33 -33 -33 -33 -33 -33 -33 -34 -34 -34 -34 -33 -33 -33 -33 -33 -34 -34 -33 -33 -33 -33 -33
-21 -22 -22 -22 -22 -23 -24 -24 -24 -24 -24 -25 -27 -28 -29 -29 -31 -32 -32 -33 -33 -33 -34 -33 -33 -33 -34 -34 -34 -34 -33 -33 -33 -33 -33 -33 -34 -34 -33 -33 -33 -33 -33
-21 -22 -22 -23 -23 -24 -24 -24 -25 -25 -26 -27 -28 -29 -30 -30 -31 -32 -33 -33 -33 -33 -34 -34 -34 -34 -34 -34 -34 -34 -33 -33 -33 -33 -33 -34 -34 -34 -34 -33 -33 -33 -33